Location: Krakow
(50.0212°N, 19.9423°E)
Time: 20:47:29
(UTC+02:00)

DIWATA 2B (PO-101) - Visible Passes

Search period start: 22 April 2024 00:00
Search period end: 02 May 2024 00:00
Orbit: 576 x 588 km, 98.1° (Epoch: 22 April)

Date Brightness Start Highest point End Pass type
(mag) Time Alt. Az. Time Alt. Az. Time Alt. Az.
22 Apr ? 03:33:40 10° SSE 03:37:45 58° ENE 03:41:52 10° N visible
23 Apr ? 03:39:18 10° SSE 03:43:25 66° ENE 03:47:34 10° N visible
24 Apr ? 02:13:21 10° ENE 02:14:29 11° NE 02:15:37 10° NE visible
24 Apr ? 03:44:56 10° SSE 03:49:05 75° ENE 03:53:15 10° N visible
25 Apr ? 02:18:23 10° E 02:20:04 12° NE 02:21:45 10° NNE visible
25 Apr ? 03:50:34 10° SSE 03:54:44 85° ENE 03:58:55 10° NNW visible
26 Apr ? 02:23:35 10° E 02:25:38 14° ENE 02:27:42 10° NNE visible
26 Apr ? 03:56:13 10° SSE 04:00:22 85° WSW 04:04:34 10° NNW visible
27 Apr ? 02:28:51 10° E 02:31:13 15° ENE 02:33:35 10° NNE visible
27 Apr ? 04:01:52 10° S 04:06:01 75° WSW 04:10:11 10° NNW visible
28 Apr ? 02:34:09 10° E 02:36:46 17° ENE 02:39:24 10° NNE visible
28 Apr ? 04:07:31 10° S 04:11:39 66° WSW 04:15:48 10° NNW visible
29 Apr ? 02:39:28 10° ESE 02:42:19 18° ENE 02:45:11 10° NNE visible
29 Apr ? 04:13:11 10° S 04:17:16 58° WSW 04:21:23 10° NNW visible
30 Apr ? 02:44:49 10° ESE 02:47:52 20° ENE 02:50:56 10° NNE visible
30 Apr ? 04:18:51 10° S 04:22:53 51° W 04:26:57 10° NNW visible
01 May ? 02:50:11 10° ESE 02:53:25 22° ENE 02:56:39 10° NNE visible
01 May ? 04:24:31 10° S 04:28:30 44° W 04:32:30 10° NNW visible
